Weather reports worldwide

Advertisment
Berlin/Tegel, Germany (10382): temperature & dewpoint: 16.01.2019 04:00:00 - 22.01.2019 04:00:00 (CET)Berlin/Tegel, Germany (10382): temperature 5cm & temperature -5cm: 16.01.2019 04:00:00 - 22.01.2019 04:00:00 (CET)Berlin/Tegel, Germany (10382): temperature -20cm & temperature -100cm: 16.01.2019 04:00:00 - 22.01.2019 04:00:00 (CET)Berlin/Tegel, Germany (10382): wind speed & gusts: 16.01.2019 04:00:00 - 22.01.2019 04:00:00 (CET)Berlin/Tegel, Germany (10382): wind direction: 16.01.2019 04:00:00 - 22.01.2019 04:00:00 (CET)Berlin/Tegel, Germany (10382): reduced air pressure: 16.01.2019 04:00:00 - 22.01.2019 04:00:00 (CET)Berlin/Tegel, Germany (10382): visibility: 16.01.2019 04:00:00 - 22.01.2019 04:00:00 (CET)Berlin/Tegel, Germany (10382): sunshine duration: 16.01.2019 04:00:00 - 22.01.2019 04:00:00 (CET)Berlin/Tegel, Germany (10382): precipitation: 16.01.2019 04:00:00 - 22.01.2019 04:00:00 (CET)
Date & Time tt [°C] td [°C] tt 5cm [°C] tt -5cm [°C] tt -20cm [°C] tt -100cm [°C] ff [km/h] ff [kn] fx [km/h] fx [kn] dd ppp [hPa] vv [km] sd [min] rr [mm]
22.01.2019 04:00:00 -4,0 -5,9 -4,2 -1,0 0,9 5,0 11 6 15 8 SSW 1016,3 9 0 0,0
22.01.2019 03:00:00 -4,0 -5,7 -4,3 -1,2 0,9 5,0 4 2 13 7 - 1017,0 9 0 0,0
22.01.2019 02:00:00 -4,3 -5,9 -5,5 -1,3 0,9 5,1 9 5 15 8 S 1017,5 9 0 0,0
22.01.2019 01:00:00 -4,4 -5,9 -6,0 -1,1 0,9 5,1 8 4 13 7 S 1018,1 9 0 0,0
22.01.2019 00:00:00 -4,0 -5,6 -5,4 -0,9 0,9 5,1 9 5 18 10 S 1018,2 9 0 0,0
21.01.2019 23:00:00 -3,5 -5,3 -4,4 -0,6 1,0 5,1 12 7 18 10 SSW 1018,6 9 0 0,0
21.01.2019 22:00:00 -3,2 -4,9 -3,8 -0,5 1,0 5,1 11 6 19 10 SSW 1019,1 9 0 0,0
21.01.2019 21:00:00 -3,3 -4,7 -3,2 -0,5 1,0 5,1 15 8 20 11 SSW 1019,4 6 0 0,0
21.01.2019 20:00:00 -3,1 -4,8 -3,9 -0,3 1,0 5,1 11 6 18 10 SSW 1019,5 10 0 0,0
21.01.2019 19:00:00 -3,1 -5,1 -4,5 0,0 1,0 5,1 11 6 24 13 S 1019,7 10 0 0,0
21.01.2019 18:00:00 -2,4 -5,0 -2,6 0,0 1,0 5,1 15 8 25 14 S 1019,7 9 0 0,0
21.01.2019 17:00:00 -1,9 -4,8 -2,3 0,0 1,0 5,1 13 7 21 11 S 1020,4 13 0 0,0
21.01.2019 16:00:00 -1,3 -4,5 -1,2 0,0 1,0 5,2 15 8 22 12 S 1020,5 10 45 0,0
21.01.2019 15:00:00 -1,2 -4,7 0,3 0,0 1,0 5,2 11 6 22 12 S 1021,1 13 60 0,0
21.01.2019 14:00:00 -1,1 -4,5 0,0 0,0 1,0 5,2 9 5 18 10 WSW 1022,0 10 59 0,0
21.01.2019 13:00:00 -2,1 -5,0 -0,7 0,0 1,0 5,2 16 9 22 12 SSW 1022,3 9 46 0,0
21.01.2019 12:00:00 -2,9 -4,9 -1,4 -0,1 1,0 5,2 13 7 18 10 SSW 1023,0 9 0 0,0
21.01.2019 11:00:00 -3,3 -4,9 -2,4 -0,2 1,0 5,2 11 6 16 9 SSW 1023,9 9 0 0,0
21.01.2019 10:00:00 -3,5 -5,0 -2,8 -0,3 1,0 5,2 13 7 21 11 SSW 1023,8 9 0 0,0
21.01.2019 09:00:00 -3,8 -5,0 -3,4 -0,4 1,0 5,2 11 6 16 9 SSW 1023,8 8 0 0,0
21.01.2019 08:00:00 -4,0 -4,9 -3,7 -0,4 1,0 5,2 8 4 13 7 W 1023,8 4,8 0 0,0
21.01.2019 07:00:00 -4,3 -5,2 -3,9 -0,4 1,1 5,3 11 6 16 9 W 1023,6 4,8 0 0,0
21.01.2019 06:00:00 -4,3 -5,1 -4,0 -0,4 1,1 5,3 11 6 16 9 SSW 1023,6 4,8 0 0,0
21.01.2019 05:00:00 -4,3 -5,1 -4,0 -0,4 1,1 5,3 8 4 11 6 SW 1024,0 5 0 0,0
21.01.2019 04:00:00 -4,2 -5,2 -3,9 -0,3 1,1 5,3 8 4 11 6 SW 1024,1 6 0 0,0
21.01.2019 03:00:00 -4,0 -5,3 -3,6 -0,3 1,1 5,3 5 3 13 7 W 1024,2 8 0 0,0
21.01.2019 02:00:00 -3,5 -4,9 -3,2 -0,2 1,1 5,3 8 4 11 6 WNW 1024,1 8 0 0,0
21.01.2019 01:00:00 -3,4 -5,0 -3,2 -0,2 1,1 5,3 5 3 9 5 WSW 1024,2 8 0 0,0
21.01.2019 00:00:00 -3,5 -5,0 -3,2 -0,2 1,1 5,3 4 2 9 5 - 1024,1 7 0 0,0
20.01.2019 23:00:00 -3,3 -4,5 -3,1 -0,2 1,1 5,3 0 0 11 6 N 1023,9 7 0 0,0
20.01.2019 22:00:00 -3,2 -4,8 -2,9 -0,1 1,1 5,4 5 3 11 6 N 1023,5 6 0 0,0
20.01.2019 21:00:00 -3,1 -4,2 -2,9 -0,1 1,1 5,4 7 4 12 6 E 1023,0 6 0 0,0
20.01.2019 20:00:00 -2,9 -4,0 -2,7 0,0 1,2 5,4 6 3 9 5 ENE 1022,3 6 0 0,0
20.01.2019 19:00:00 -2,9 -4,3 -2,7 0,0 1,2 5,4 6 3 13 7 NE 1021,9 7 0 0,0
20.01.2019 18:00:00 -2,3 -3,8 -2,3 0,0 1,2 5,4 5 3 14 8 ENE 1021,4 10 0 0,0
20.01.2019 17:00:00 -1,9 -3,7 -2,1 0,0 1,2 5,4 8 5 18 10 NNE 1021,1 8 0 0,0
20.01.2019 16:00:00 -0,8 -3,2 -1,2 0,0 1,2 5,4 13 7 18 10 NE 1020,8 10 41 0,0
20.01.2019 15:00:00 0,4 -3,3 0,6 0,0 1,2 5,4 9 5 15 8 ENE 1020,3 10 60 0,0
20.01.2019 14:00:00 0,6 -3,7 1,6 0,0 1,2 5,4 8 4 11 6 ENE 1020,1 10 60 0,0
20.01.2019 13:00:00 0,2 -4,1 1,5 -0,1 1,2 5,4 5 3 11 6 E 1020,3 10 60 0,0
20.01.2019 12:00:00 -0,9 -4,3 0,2 -0,2 1,3 5,5 5 3 11 6 E 1020,2 10 60 0,0
20.01.2019 11:00:00 -2,6 -5,2 -1,5 -0,5 1,3 5,5 6 3 11 6 NE 1020,2 10 60 0,0
20.01.2019 10:00:00 -4,1 -6,1 -4,3 -0,9 1,3 5,5 5 3 11 6 NE 1019,8 10 55 0,0
20.01.2019 09:00:00 -4,9 -6,1 -6,0 -0,9 1,4 5,5 5 3 9 5 NE 1019,3 10 0 0,0
20.01.2019 08:00:00 -4,8 -5,8 -6,5 -0,8 1,4 5,5 5 3 9 5 NE 1018,9 12 0 0,0
20.01.2019 07:00:00 -4,4 -5,4 -5,9 -0,6 1,5 5,5 4 2 9 5 - 1018,5 10 0 0,0
20.01.2019 06:00:00 -4,1 -5,0 -6,0 -0,4 1,5 5,5 8 4 11 6 ENE 1018,4 10 0 0,0
20.01.2019 05:00:00 -3,9 -5,0 -5,4 -0,3 1,6 5,5 8 4 10 5 NE 1018,4 10 0 0,0
20.01.2019 04:00:00 -3,5 -4,6 -4,9 -0,1 1,6 5,5 6 4 9 5 NE 1018,5 18 0 0,0
20.01.2019 03:00:00 -3,4 -4,5 -5,2 0,0 1,7 5,5 5 3 9 5 ENE 1018,5 10 0 0,0
20.01.2019 02:00:00 -2,9 -4,1 -5,2 0,1 1,7 5,5 4 2 9 5 - 1018,7 10 0 0,0
20.01.2019 01:00:00 -2,6 -3,6 -6,5 0,2 1,7 5,6 4 2 5 3 - 1018,9 10 0 0,0
20.01.2019 00:00:00 -2,1 -3,4 -6,9 0,3 1,8 5,6 3 2 5 3 ENE 1019,2 18 0 0,0
19.01.2019 23:00:00 -1,3 -3,5 -4,7 0,4 1,8 5,6 5 3 9 5 E 1019,3 10 0 0,0
19.01.2019 22:00:00 -1,1 -3,4 -3,5 0,4 1,8 5,6 5 3 9 5 E 1019,5 10 0 0,0
19.01.2019 21:00:00 -0,6 -2,9 -2,9 0,5 1,8 5,6 6 3 9 5 E 1019,5 18 0 0,0
19.01.2019 20:00:00 0,2 -2,5 -1,7 0,6 1,8 5,6 6 4 11 6 E 1019,6 18 0 0,0
19.01.2019 19:00:00 1,1 -2,1 -0,6 0,6 1,8 5,6 4 2 11 6 - 1019,6 10 0 0,0
19.01.2019 18:00:00 1,0 -2,1 -0,6 0,6 1,9 5,6 7 4 9 5 SE 1019,6 20 0 0,0
19.01.2019 17:00:00 1,9 -1,8 1,1 0,7 1,9 5,6 6 3 9 5 NE 1019,6 20 0 0,0
19.01.2019 16:00:00 2,0 -1,8 -0,2 0,7 1,9 5,6 2 1 4 2 NNW 1019,8 10 0 0,0
19.01.2019 15:00:00 2,2 -2,0 0,3 0,7 1,9 5,6 0 0 8 4 N 1020,0 20 33 0,0
19.01.2019 14:00:00 2,3 -2,5 3,9 0,8 1,9 5,7 5 3 11 6 W 1020,3 10 60 0,0
19.01.2019 13:00:00 2,2 -2,0 4,6 0,6 1,9 5,7 8 4 13 7 W 1020,6 10 60 0,0
19.01.2019 12:00:00 1,6 -2,1 3,9 0,5 1,9 5,7 5 3 9 5 W 1021,2 10 60 0,0
19.01.2019 11:00:00 1,0 -2,3 3,1 0,5 1,9 5,7 5 3 7 4 W 1021,4 10 60 0,0
19.01.2019 10:00:00 -0,8 -2,8 -1,8 0,5 2,0 5,7 3 2 9 5 SW 1021,4 20 20 0,0
19.01.2019 09:00:00 -1,3 -2,8 -4,2 0,5 2,0 5,7 4 2 11 6 WSW 1021,1 20 0 0,0
19.01.2019 08:00:00 -1,1 -2,8 -2,4 0,6 2,0 5,7 2 1 4 2 W 1020,7 22 0 0,0
19.01.2019 07:00:00 -0,9 -2,7 -5,7 0,6 2,1 5,7 4 2 12 7 NW 1020,6 25 0 0,0
19.01.2019 06:00:00 -0,5 -2,8 -1,8 0,6 2,1 5,7 5 3 15 8 WSW 1020,7 10 0 0,0
19.01.2019 05:00:00 -0,6 -3,2 -4,2 0,7 2,1 5,7 6 3 9 5 W 1020,6 40 0 0,0
19.01.2019 04:00:00 0,1 -3,1 -3,0 0,7 2,1 5,7 8 4 11 6 W 1020,7 10 0 0,0
19.01.2019 03:00:00 0,5 -2,5 -1,3 0,7 2,2 5,7 5 3 9 5 W 1020,8 10 0 0,0
19.01.2019 02:00:00 0,3 -2,5 -1,1 0,8 2,2 5,7 6 3 18 10 W 1020,7 40 0 0,0
19.01.2019 01:00:00 0,8 -2,7 0,1 0,8 2,2 5,7 12 7 22 12 W 1020,8 40 0 0,0
19.01.2019 00:00:00 0,9 -2,3 -0,4 0,8 2,3 5,7 10 5 27 15 WNW 1020,8 40 0 0,0
18.01.2019 23:00:00 0,9 -2,2 -0,3 0,9 2,3 5,8 15 8 27 15 W 1020,5 10 0 0,0
18.01.2019 22:00:00 1,2 -1,3 0,5 0,9 2,3 5,8 9 5 21 11 W 1020,1 10 0 0,0
18.01.2019 21:00:00 1,0 -0,5 0,4 0,9 2,3 5,8 12 6 18 10 W 1019,7 30 0 0,0
18.01.2019 20:00:00 0,8 -0,8 0,2 0,9 2,4 5,8 14 8 24 13 WSW 1019,4 18 0 0,0
18.01.2019 19:00:00 -0,3 -1,2 -1,0 0,9 2,4 5,8 13 7 29 16 W 1019,0 30 0 0,2
18.01.2019 18:00:00 1,3 -3,1 0,8 0,9 2,5 5,8 21 11 30 16 WSW 1018,5 10 0 0,0
18.01.2019 17:00:00 1,0 -3,5 0,2 0,9 2,5 5,8 16 9 29 16 WSW 1018,4 10 0 0,0
18.01.2019 16:00:00 1,2 -3,7 0,0 1,1 2,5 5,8 15 8 27 15 WSW 1018,4 10 45 0,0
18.01.2019 15:00:00 1,5 -3,9 1,4 1,5 2,5 5,8 21 11 31 17 WSW 1018,3 10 60 0,0
18.01.2019 14:00:00 1,5 -4,4 2,6 1,3 2,5 5,8 26 14 36 19 W 1018,2 10 60 0,0
18.01.2019 13:00:00 1,3 -3,9 3,2 1,1 2,6 5,8 21 11 27 14 W 1017,8 10 60 0,0
18.01.2019 12:00:00 0,7 -3,6 3,1 0,9 2,7 5,8 18 10 26 14 W 1017,6 50 60 0,0
18.01.2019 11:00:00 -0,2 -3,9 1,5 0,9 2,7 5,8 15 8 28 15 WNW 1017,4 50 60 0,0
18.01.2019 10:00:00 -1,2 -4,2 -1,2 0,9 2,8 5,8 16 9 29 16 WNW 1016,8 50 53 0,0
18.01.2019 09:00:00 -1,5 -5,3 -3,4 1,0 2,9 5,8 16 8 26 14 WNW 1015,4 55 0 0,0
18.01.2019 08:00:00 -1,2 -5,2 -3,0 1,1 3,0 5,8 15 8 28 15 NW 1013,9 10 0 0,0
18.01.2019 07:00:00 -0,6 -4,1 -1,7 1,2 3,1 5,8 13 7 35 19 NW 1012,2 10 0 0,1
18.01.2019 06:00:00 -0,5 -2,2 -0,9 1,3 3,2 5,8 13 7 26 14 NW 1010,8 10 0 0,0
18.01.2019 05:00:00 -0,9 -2,2 -1,4 1,3 3,4 5,8 15 8 25 13 WNW 1009,6 10 0 0,0
18.01.2019 04:00:00 -1,1 -1,6 -0,9 1,5 3,5 5,8 12 7 38 21 NNW 1008,2 2,5 0 0,1
18.01.2019 03:00:00 -0,2 -1,8 -0,2 1,8 3,7 5,8 16 9 43 23 NW 1006,7 8 0 0,2
18.01.2019 02:00:00 1,1 -0,5 0,6 2,1 3,8 5,8 24 13 41 22 W 1004,5 20 0 0,2
18.01.2019 01:00:00 1,7 -0,4 0,8 2,5 3,9 5,8 27 15 47 25 W 1003,9 15 0 0,2
18.01.2019 00:00:00 2,3 0,4 1,6 2,8 4,0 5,8 22 12 38 21 W 1003,1 9 0 0,0
17.01.2019 23:00:00 3,0 0,7 2,3 3,0 4,0 5,8 26 14 45 24 WSW 1002,3 40 0 0,0
17.01.2019 22:00:00 3,2 1,3 2,6 3,3 4,1 5,7 23 12 39 21 W 1001,5 30 0 0,0
17.01.2019 21:00:00 3,2 1,8 2,7 3,4 4,1 5,7 24 13 41 22 W 1000,6 10 0 0,1
17.01.2019 20:00:00 3,1 1,9 2,6 3,5 4,2 5,7 21 12 34 18 W 999,4 15 0 0,4
17.01.2019 19:00:00 4,0 1,3 3,0 3,6 4,2 5,7 26 14 40 22 WSW 998,6 10 0 0,1
17.01.2019 18:00:00 5,1 1,3 3,5 3,7 4,3 5,7 28 15 43 23 WSW 998,4 20 0 0,1
17.01.2019 17:00:00 5,7 0,2 4,0 3,8 4,3 5,7 16 9 31 17 SSW 998,2 50 0 0,0
17.01.2019 16:00:00 6,7 0,1 6,0 4,5 4,3 5,7 22 12 35 19 SW 998,4 50 23 0,0
17.01.2019 15:00:00 6,5 0,1 6,0 4,8 4,2 5,7 24 13 40 21 WSW 998,8 10 18 0,0
17.01.2019 14:00:00 6,4 0,9 6,7 4,6 4,1 5,7 26 14 44 24 SW 999,2 50 5 0,0
17.01.2019 13:00:00 5,9 1,0 5,9 4,7 4,0 5,7 22 12 34 18 WSW 999,6 10 0 0,0
17.01.2019 12:00:00 5,7 1,5 5,8 4,4 3,9 5,7 22 12 38 21 W 1000,2 10 0 0,0
17.01.2019 11:00:00 5,5 1,9 5,3 3,9 3,9 5,7 24 13 42 23 WSW 1000,2 10 0 0,0
17.01.2019 10:00:00 5,1 2,1 4,4 3,7 3,8 5,7 26 14 48 26 W 999,9 40 0 0,0
17.01.2019 09:00:00 5,0 2,2 4,5 3,5 3,8 5,7 28 15 44 24 WSW 999,3 10 0 0,0
17.01.2019 08:00:00 5,1 1,9 4,0 3,4 3,8 5,7 34 18 51 27 WSW 998,8 10 0 0,0
17.01.2019 07:00:00 5,3 1,3 4,6 3,2 3,8 5,7 31 17 44 24 WSW 998,2 30 0 0,0
17.01.2019 06:00:00 4,6 0,8 4,1 3,0 3,8 5,7 21 11 31 17 SW 998,2 10 0 0,0
17.01.2019 05:00:00 4,5 0,3 3,9 2,8 3,8 5,7 21 11 35 19 SW 998,1 35 0 0,0
17.01.2019 04:00:00 4,2 0,0 3,8 2,6 3,9 5,7 22 12 35 19 SW 998,3 10 0 0,0
17.01.2019 03:00:00 3,4 0,1 2,7 2,4 4,0 5,7 14 7 24 13 SSW 998,9 35 0 0,0
17.01.2019 02:00:00 3,0 -0,1 1,7 2,4 4,2 5,7 16 8 21 11 SSW 999,4 35 0 0,0
17.01.2019 01:00:00 3,4 0,1 2,0 2,7 4,4 5,7 15 8 22 12 SSW 1000,1 10 0 0,0
17.01.2019 00:00:00 3,7 0,2 2,2 3,1 4,5 5,7 16 9 29 16 SSW 1001,1 10 0 0,0
16.01.2019 23:00:00 4,5 0,1 3,2 3,6 4,7 5,7 18 10 33 18 SSW 1002,0 10 0 0,0
16.01.2019 22:00:00 4,8 0,4 3,8 4,1 4,7 5,7 21 11 31 17 SSW 1002,6 10 0 0,0
16.01.2019 21:00:00 5,4 0,8 4,9 4,5 4,8 5,7 22 12 34 18 SW 1003,4 10 0 0,0
16.01.2019 20:00:00 5,7 1,4 5,2 4,7 4,8 5,7 22 12 40 21 SW 1003,9 10 0 0,0
16.01.2019 19:00:00 6,1 2,1 5,5 4,9 4,9 5,7 26 14 42 23 SW 1004,3 10 0 0,0
16.01.2019 18:00:00 6,5 2,8 6,0 5,1 4,9 5,6 26 14 44 24 SW 1004,7 10 0 0,0
16.01.2019 17:00:00 6,8 3,3 6,2 5,3 4,9 5,6 24 13 35 19 SW 1005,2 10 0 0,0
16.01.2019 16:00:00 6,8 3,6 6,3 5,4 4,8 5,6 20 11 35 19 SW 1005,7 50 0 0,0
16.01.2019 15:00:00 6,9 3,4 6,5 5,6 4,8 5,7 21 12 31 17 SW 1006,1 45 0 0,0
16.01.2019 14:00:00 7,1 3,7 6,9 5,6 4,7 5,7 22 12 39 21 SW 1006,6 40 0 0,0
16.01.2019 13:00:00 7,3 3,9 7,1 5,5 4,6 5,7 26 14 37 20 WSW 1007,1 10 0 0,0
16.01.2019 12:00:00 6,8 3,7 6,5 5,3 4,6 5,7 22 12 34 18 SW 1007,7 30 0 0,0
16.01.2019 11:00:00 6,5 4,3 6,0 5,1 4,5 5,7 21 11 35 19 WSW 1008,4 10 0 0,0
16.01.2019 10:00:00 6,3 3,9 6,0 5,0 4,5 5,7 23 12 33 18 WSW 1008,3 20 0 0,0
16.01.2019 09:00:00 6,1 4,1 5,6 5,0 4,5 5,7 23 12 36 20 WSW 1008,4 15 0 0,0
16.01.2019 08:00:00 6,3 4,0 5,5 5,0 4,5 5,7 24 13 37 20 WSW 1008,2 15 0 0,0
16.01.2019 07:00:00 6,5 4,1 5,7 5,1 4,4 5,7 26 14 37 20 WSW 1008,1 20 0 0,0
16.01.2019 06:00:00 6,6 5,0 5,8 5,2 4,3 5,7 26 14 36 20 W 1008,1 14 0 0,0
16.01.2019 05:00:00 6,7 5,6 6,1 5,3 4,2 5,7 23 12 39 21 W 1008,4 15 0 0,2
16.01.2019 04:00:00 7,2 5,5 6,4 5,2 4,1 5,7 31 17 47 25 W 1008,3 10 0 0,0

tt = temperature
td = dewpoint
tt 5cm = temperature 5cm
tt -5cm = temperature -5cm
tt -20cm = temperature -20cm
tt -100cm = temperature -100cm
ff = wind speed
fx = gusts
dd = wind direction
ppp = reduced air pressure
vv = visibility
sd = sunshine duration
rr = precipitation

Next stations